Time,TemperatureF,DewpointF,PressureIn,WindDirection,WindDirectionDegrees,WindSpeedMPH,WindSpeedGustMPH,Humidity,HourlyPrecipIn,Conditions,Clouds,dailyrainin,SoftwareType,DateUTC
2013-03-07 00:03:00,19.4,16.9,30.37,East,98,0.0,0.0,90,0.00,,,0.00,Wunderground v.1.15,2013-03-07 06:03:00,
2013-03-07 00:10:00,19.4,17.2,30.37,East,98,0.0,0.0,91,0.00,,,0.00,Wunderground v.1.15,2013-03-07 06:10:00,
2013-03-07 00:16:00,19.4,19.4,30.37,East,98,0.0,0.0,100,0.00,,,0.00,Wunderground v.1.15,2013-03-07 06:16:00,
2013-03-07 00:22:00,19.4,17.2,30.38,East,98,0.0,0.0,91,0.00,,,0.00,Wunderground v.1.15,2013-03-07 06:22:00,
2013-03-07 00:27:00,19.5,17.3,30.38,East,98,0.0,0.0,91,0.00,,,0.00,Wunderground v.1.15,2013-03-07 06:27:00,
2013-03-07 00:33:00,19.6,17.4,30.38,East,98,0.0,1.0,91,0.00,,,0.00,Wunderground v.1.15,2013-03-07 06:33:00,
2013-03-07 00:42:00,19.8,17.6,30.38,East,98,0.0,1.0,91,0.00,,,0.00,Wunderground v.1.15,2013-03-07 06:42:00,
2013-03-07 00:47:00,19.8,17.6,30.39,East,98,0.0,1.0,91,0.00,,,0.00,Wunderground v.1.15,2013-03-07 06:47:00,
2013-03-07 00:53:00,19.8,17.6,30.39,East,98,0.0,1.0,91,0.00,,,0.00,Wunderground v.1.15,2013-03-07 06:53:00,
2013-03-07 00:59:00,19.8,17.6,30.39,East,98,1.0,1.0,91,0.00,,,0.00,Wunderground v.1.15,2013-03-07 06:59:00,
2013-03-07 01:05:00,19.8,17.6,30.39,East,98,1.0,1.0,91,0.00,,,0.00,Wunderground v.1.15,2013-03-07 07:05:00,
2013-03-07 01:10:00,19.5,17.3,30.39,East,98,1.0,1.0,91,0.00,,,0.00,Wunderground v.1.15,2013-03-07 07:10:00,
2013-03-07 01:16:00,19.4,17.2,30.39,East,98,1.0,2.0,91,0.00,,,0.00,Wunderground v.1.15,2013-03-07 07:16:00,
2013-03-07 01:21:00,18.9,16.5,30.39,East,98,2.0,2.0,90,0.00,,,0.00,Wunderground v.1.15,2013-03-07 07:21:00,
2013-03-07 01:30:00,17.5,15.1,30.39,East,98,1.0,1.0,90,0.00,,,0.00,Wunderground v.1.15,2013-03-07 07:30:00,
2013-03-07 01:36:00,17.5,15.3,30.39,East,98,0.0,1.0,91,0.00,,,0.00,Wunderground v.1.15,2013-03-07 07:36:00,
2013-03-07 01:41:00,17.7,15.8,30.39,East,98,0.0,1.0,92,0.00,,,0.00,Wunderground v.1.15,2013-03-07 07:41:00,
2013-03-07 01:46:00,17.9,16.0,30.39,East,98,0.0,1.0,92,0.00,,,0.00,Wunderground v.1.15,2013-03-07 07:46:00,
2013-03-07 01:52:00,18.0,16.1,30.39,East,98,0.0,1.0,92,0.00,,,0.00,Wunderground v.1.15,2013-03-07 07:52:00,
2013-03-07 01:58:00,18.1,16.2,30.39,East,98,0.0,1.0,92,0.00,,,0.00,Wunderground v.1.15,2013-03-07 07:58:00,
2013-03-07 02:03:00,18.0,16.1,30.39,East,98,0.0,1.0,92,0.00,,,0.00,Wunderground v.1.15,2013-03-07 08:03:00,
2013-03-07 02:09:00,17.9,16.0,30.39,East,98,0.0,1.0,92,0.00,,,0.00,Wunderground v.1.15,2013-03-07 08:09:00,
2013-03-07 02:19:00,18.0,16.1,30.39,East,98,2.0,2.0,92,0.00,,,0.00,Wunderground v.1.15,2013-03-07 08:19:00,
2013-03-07 02:25:00,18.2,16.5,30.39,East,98,2.0,2.0,93,0.00,,,0.00,Wunderground v.1.15,2013-03-07 08:25:00,
2013-03-07 02:31:00,18.4,16.7,30.39,East,98,1.0,1.0,93,0.00,,,0.00,Wunderground v.1.15,2013-03-07 08:31:00,
2013-03-07 02:36:00,18.5,16.8,30.39,East,98,0.0,2.0,93,0.00,,,0.00,Wunderground v.1.15,2013-03-07 08:36:00,
2013-03-07 02:41:00,18.6,16.9,30.39,East,98,1.0,2.0,93,0.00,,,0.00,Wunderground v.1.15,2013-03-07 08:41:00,
2013-03-07 02:47:00,18.6,16.9,30.39,East,98,2.0,2.0,93,0.00,,,0.00,Wunderground v.1.15,2013-03-07 08:47:00,
2013-03-07 02:53:00,18.4,16.5,30.39,East,98,2.0,2.0,92,0.00,,,0.00,Wunderground v.1.15,2013-03-07 08:53:00,
2013-03-07 02:58:00,18.4,16.7,30.39,East,98,1.0,2.0,93,0.00,,,0.00,Wunderground v.1.15,2013-03-07 08:58:00,
2013-03-07 03:04:00,18.4,16.5,30.39,East,98,1.0,1.0,92,0.00,,,0.00,Wunderground v.1.15,2013-03-07 09:04:00,
2013-03-07 03:09:00,18.3,16.4,30.39,East,98,0.0,1.0,92,0.00,,,0.00,Wunderground v.1.15,2013-03-07 09:09:00,
2013-03-07 03:15:00,18.1,16.2,30.39,East,98,0.0,2.0,92,0.00,,,0.00,Wunderground v.1.15,2013-03-07 09:15:00,
2013-03-07 03:20:00,17.5,15.3,30.38,East,98,1.0,1.0,91,0.00,,,0.00,Wunderground v.1.15,2013-03-07 09:20:00,
2013-03-07 03:26:00,16.8,14.6,30.38,East,98,1.0,1.0,91,0.00,,,0.00,Wunderground v.1.15,2013-03-07 09:26:00,
2013-03-07 03:32:00,16.7,14.8,30.38,East,98,0.0,1.0,92,0.00,,,0.00,Wunderground v.1.15,2013-03-07 09:32:00,
2013-03-07 03:37:00,15.4,13.0,30.38,East,98,0.0,1.0,90,0.00,,,0.00,Wunderground v.1.15,2013-03-07 09:37:00,
2013-03-07 03:43:00,14.9,13.0,30.38,East,98,0.0,1.0,92,0.00,,,0.00,Wunderground v.1.15,2013-03-07 09:43:00,
2013-03-07 03:49:00,15.1,13.2,30.38,East,98,0.0,1.0,92,0.00,,,0.00,Wunderground v.1.15,2013-03-07 09:49:00,
2013-03-07 03:55:00,15.4,13.7,30.38,East,98,0.0,1.0,93,0.00,,,0.00,Wunderground v.1.15,2013-03-07 09:55:00,
2013-03-07 04:01:00,15.5,13.6,30.38,East,98,0.0,1.0,92,0.00,,,0.00,Wunderground v.1.15,2013-03-07 10:01:00,
2013-03-07 04:07:00,15.8,14.1,30.39,East,98,0.0,1.0,93,0.00,,,0.00,Wunderground v.1.15,2013-03-07 10:07:00,
2013-03-07 04:13:00,16.4,14.7,30.38,East,98,0.0,1.0,93,0.00,,,0.00,Wunderground v.1.15,2013-03-07 10:13:00,
2013-03-07 04:18:00,16.8,15.1,30.38,East,98,1.0,3.0,93,0.00,,,0.00,Wunderground v.1.15,2013-03-07 10:18:00,
2013-03-07 04:24:00,16.9,15.0,30.38,East,98,2.0,2.0,92,0.00,,,0.00,Wunderground v.1.15,2013-03-07 10:24:00,
2013-03-07 04:31:00,16.7,14.8,30.38,ESE,108,2.0,2.0,92,0.00,,,0.00,Wunderground v.1.15,2013-03-07 10:31:00,
2013-03-07 04:37:00,15.9,13.7,30.38,ESE,107,1.0,2.0,91,0.00,,,0.00,Wunderground v.1.15,2013-03-07 10:37:00,
2013-03-07 04:43:00,15.3,13.1,30.38,ESE,115,1.0,1.0,91,0.00,,,0.00,Wunderground v.1.15,2013-03-07 10:43:00,
2013-03-07 04:49:00,15.2,13.0,30.39,ESE,115,1.0,1.0,91,0.00,,,0.00,Wunderground v.1.15,2013-03-07 10:49:00,
2013-03-07 04:55:00,15.2,13.3,30.39,ESE,115,1.0,1.0,92,0.00,,,0.00,Wunderground v.1.15,2013-03-07 10:55:00,
2013-03-07 05:00:00,15.5,13.6,30.39,ESE,115,0.0,1.0,92,0.00,,,0.00,Wunderground v.1.15,2013-03-07 11:00:00,
2013-03-07 05:06:00,15.3,13.1,30.38,SE,142,0.0,2.0,91,0.00,,,0.00,Wunderground v.1.15,2013-03-07 11:06:00,
2013-03-07 05:12:00,14.7,12.6,30.38,SE,142,0.0,1.0,91,0.00,,,0.00,Wunderground v.1.15,2013-03-07 11:12:00,
2013-03-07 05:17:00,14.9,12.7,30.39,SE,142,0.0,1.0,91,0.00,,,0.00,Wunderground v.1.15,2013-03-07 11:17:00,
2013-03-07 05:23:00,15.0,13.1,30.39,SE,142,0.0,1.0,92,0.00,,,0.00,Wunderground v.1.15,2013-03-07 11:23:00,
2013-03-07 05:29:00,15.4,13.5,30.39,SE,142,0.0,1.0,92,0.00,,,0.00,Wunderground v.1.15,2013-03-07 11:29:00,
2013-03-07 05:35:00,15.9,14.0,30.38,SE,142,0.0,1.0,92,0.00,,,0.00,Wunderground v.1.15,2013-03-07 11:35:00,
2013-03-07 05:41:00,16.2,14.3,30.38,SE,142,0.0,1.0,92,0.00,,,0.00,Wunderground v.1.15,2013-03-07 11:41:00,
2013-03-07 05:46:00,16.3,14.4,30.39,SE,142,1.0,2.0,92,0.00,,,0.00,Wunderground v.1.15,2013-03-07 11:46:00,
2013-03-07 05:52:00,16.2,14.3,30.39,SE,142,1.0,1.0,92,0.00,,,0.00,Wunderground v.1.15,2013-03-07 11:52:00,
2013-03-07 05:57:00,16.1,14.2,30.39,SE,142,0.0,1.0,92,0.00,,,0.00,Wunderground v.1.15,2013-03-07 11:57:00,
2013-03-07 06:03:00,16.1,14.2,30.39,SE,142,0.0,1.0,92,0.00,,,0.00,Wunderground v.1.15,2013-03-07 12:03:00,
2013-03-07 06:09:00,16.1,14.2,30.39,SE,142,0.0,1.0,92,0.00,,,0.00,Wunderground v.1.15,2013-03-07 12:09:00,
2013-03-07 06:14:00,16.1,14.2,30.40,SE,142,0.0,1.0,92,0.00,,,0.00,Wunderground v.1.15,2013-03-07 12:14:00,
2013-03-07 06:20:00,16.0,14.1,30.40,SE,142,0.0,1.0,92,0.00,,,0.00,Wunderground v.1.15,2013-03-07 12:20:00,
2013-03-07 06:26:00,16.1,14.2,30.40,SE,142,0.0,1.0,92,0.00,,,0.00,Wunderground v.1.15,2013-03-07 12:26:00,
2013-03-07 06:32:00,16.0,13.8,30.40,SE,142,0.0,1.0,91,0.00,,,0.00,Wunderground v.1.15,2013-03-07 12:32:00,
2013-03-07 06:37:00,15.7,13.5,30.40,SE,142,0.0,1.0,91,0.00,,,0.00,Wunderground v.1.15,2013-03-07 12:37:00,
2013-03-07 06:42:00,15.1,12.7,30.41,SE,142,0.0,1.0,90,0.00,,,0.00,Wunderground v.1.15,2013-03-07 12:42:00,
2013-03-07 06:48:00,14.8,12.6,30.41,SE,142,0.0,1.0,91,0.00,,,0.00,Wunderground v.1.15,2013-03-07 12:48:00,
2013-03-07 06:54:00,15.3,13.4,30.41,SE,142,0.0,1.0,92,0.00,,,0.00,Wunderground v.1.15,2013-03-07 12:54:00,
2013-03-07 06:59:00,15.7,13.8,30.41,SE,142,0.0,1.0,92,0.00,,,0.00,Wunderground v.1.15,2013-03-07 12:59:00,
2013-03-07 07:05:00,16.4,14.7,30.41,SE,142,0.0,1.0,93,0.00,,,0.00,Wunderground v.1.15,2013-03-07 13:05:00,
2013-03-07 07:10:00,17.0,15.3,30.41,SE,142,0.0,1.0,93,0.00,,,0.00,Wunderground v.1.15,2013-03-07 13:10:00,
2013-03-07 07:16:00,17.4,15.7,30.41,SE,142,0.0,1.0,93,0.00,,,0.00,Wunderground v.1.15,2013-03-07 13:16:00,
2013-03-07 07:22:00,17.9,16.2,30.41,SE,142,0.0,1.0,93,0.00,,,0.00,Wunderground v.1.15,2013-03-07 13:22:00,
2013-03-07 07:27:00,18.3,16.6,30.42,SE,142,0.0,1.0,93,0.00,,,0.00,Wunderground v.1.15,2013-03-07 13:27:00,
2013-03-07 07:33:00,19.0,17.3,30.42,SE,142,0.0,1.0,93,0.00,,,0.00,Wunderground v.1.15,2013-03-07 13:33:00,
2013-03-07 07:38:00,19.3,17.6,30.42,SE,142,0.0,1.0,93,0.00,,,0.00,Wunderground v.1.15,2013-03-07 13:38:00,
2013-03-07 07:44:00,19.4,17.5,30.42,SE,142,0.0,1.0,92,0.00,,,0.00,Wunderground v.1.15,2013-03-07 13:44:00,
2013-03-07 07:50:00,19.3,17.4,30.42,SE,142,0.0,1.0,92,0.00,,,0.00,Wunderground v.1.15,2013-03-07 13:50:00,
2013-03-07 07:56:00,19.6,17.7,30.42,SE,142,0.0,1.0,92,0.00,,,0.00,Wunderground v.1.15,2013-03-07 13:56:00,
2013-03-07 08:01:00,19.5,17.6,30.42,SE,142,1.0,4.0,92,0.00,,,0.00,Wunderground v.1.15,2013-03-07 14:01:00,
2013-03-07 08:07:00,18.7,16.5,30.43,SE,142,2.0,4.0,91,0.00,,,0.00,Wunderground v.1.15,2013-03-07 14:07:00,
2013-03-07 08:13:00,18.2,16.0,30.42,SE,141,1.0,2.0,91,0.00,,,0.00,Wunderground v.1.15,2013-03-07 14:13:00,
2013-03-07 08:18:00,18.4,16.5,30.43,SE,141,1.0,2.0,92,0.00,,,0.00,Wunderground v.1.15,2013-03-07 14:18:00,
2013-03-07 08:24:00,18.6,16.7,30.42,SE,142,1.0,2.0,92,0.00,,,0.00,Wunderground v.1.15,2013-03-07 14:24:00,
2013-03-07 08:29:00,19.3,17.4,30.43,SE,142,1.0,2.0,92,0.00,,,0.00,Wunderground v.1.15,2013-03-07 14:29:00,
2013-03-07 08:35:00,20.0,18.3,30.43,SE,142,0.0,1.0,93,0.00,,,0.00,Wunderground v.1.15,2013-03-07 14:35:00,
2013-03-07 08:40:00,20.9,19.2,30.43,SE,142,0.0,1.0,93,0.00,,,0.00,Wunderground v.1.15,2013-03-07 14:40:00,
2013-03-07 08:45:00,21.3,19.6,30.43,SE,146,1.0,2.0,93,0.00,,,0.00,Wunderground v.1.15,2013-03-07 14:45:00,
2013-03-07 08:51:00,21.9,20.2,30.43,SE,146,1.0,1.0,93,0.00,,,0.00,Wunderground v.1.15,2013-03-07 14:51:00,
2013-03-07 08:56:00,22.1,20.1,30.43,SSE,152,1.0,5.0,92,0.00,,,0.00,Wunderground v.1.15,2013-03-07 14:56:00,
2013-03-07 09:02:00,21.7,19.5,30.43,SSE,159,3.0,4.0,91,0.00,,,0.00,Wunderground v.1.15,2013-03-07 15:02:00,
2013-03-07 09:08:00,22.1,20.1,30.43,SSE,148,3.0,4.0,92,0.00,,,0.00,Wunderground v.1.15,2013-03-07 15:08:00,
2013-03-07 09:13:00,22.5,20.5,30.43,SSE,150,2.0,5.0,92,0.00,,,0.00,Wunderground v.1.15,2013-03-07 15:13:00,
2013-03-07 09:19:00,22.5,20.5,30.43,SSE,155,3.0,5.0,92,0.00,,,0.00,Wunderground v.1.15,2013-03-07 15:19:00,
2013-03-07 09:24:00,22.9,20.9,30.43,SSE,156,3.0,3.0,92,0.00,,,0.00,Wunderground v.1.15,2013-03-07 15:24:00,
2013-03-07 09:30:00,23.8,21.8,30.42,SSE,155,2.0,2.0,92,0.00,,,0.00,Wunderground v.1.15,2013-03-07 15:30:00,
2013-03-07 09:36:00,24.6,22.3,30.42,South,173,2.0,4.0,91,0.00,,,0.00,Wunderground v.1.15,2013-03-07 15:36:00,
2013-03-07 09:43:00,25.8,23.3,30.42,South,186,1.0,2.0,90,0.00,,,0.00,Wunderground v.1.15,2013-03-07 15:43:00,
2013-03-07 09:49:00,27.1,23.7,30.42,SW,222,1.0,3.0,87,0.00,,,0.00,Wunderground v.1.15,2013-03-07 15:49:00,
2013-03-07 09:54:00,27.9,24.0,30.42,SSW,197,1.0,1.0,85,0.00,,,0.00,Wunderground v.1.15,2013-03-07 15:54:00,
2013-03-07 10:00:00,28.7,23.9,30.42,SSW,200,1.0,1.0,82,0.00,,,0.00,Wunderground v.1.15,2013-03-07 16:00:00,
2013-03-07 10:06:00,29.4,24.3,30.42,WSW,240,1.0,5.0,81,0.00,,,0.00,Wunderground v.1.15,2013-03-07 16:06:00,
2013-03-07 10:11:00,30.1,24.7,30.42,South,172,1.0,2.0,80,0.00,,,0.00,Wunderground v.1.15,2013-03-07 16:11:00,
2013-03-07 10:19:00,29.9,23.6,30.42,SSE,163,2.0,2.0,77,0.00,,,0.00,Wunderground v.1.15,2013-03-07 16:19:00,
2013-03-07 10:25:00,29.6,23.3,30.42,SSE,149,3.0,5.0,77,0.00,,,0.01,Wunderground v.1.15,2013-03-07 16:25:00,
2013-03-07 10:31:00,30.2,24.2,30.42,SSW,212,2.0,3.0,78,0.00,,,0.01,Wunderground v.1.15,2013-03-07 16:31:00,
2013-03-07 10:36:00,30.4,23.7,30.42,SSE,157,2.0,5.0,76,0.00,,,0.01,Wunderground v.1.15,2013-03-07 16:36:00,
2013-03-07 10:43:00,29.4,23.4,30.42,SE,128,5.0,6.0,78,0.00,,,0.01,Wunderground v.1.15,2013-03-07 16:43:00,
2013-03-07 10:49:00,28.8,23.4,30.41,SE,124,5.0,6.0,80,0.00,,,0.01,Wunderground v.1.15,2013-03-07 16:49:00,
2013-03-07 10:54:00,28.8,23.7,30.41,SSE,153,5.0,6.0,81,0.00,,,0.01,Wunderground v.1.15,2013-03-07 16:54:00,
2013-03-07 11:00:00,28.8,23.4,30.42,SE,128,6.0,6.0,80,0.00,,,0.01,Wunderground v.1.15,2013-03-07 17:00:00,
2013-03-07 11:05:00,28.9,23.5,30.42,ESE,119,6.0,6.0,80,0.00,,,0.01,Wunderground v.1.15,2013-03-07 17:05:00,
2013-03-07 11:11:00,29.1,23.7,30.42,ESE,122,5.0,5.0,80,0.00,,,0.01,Wunderground v.1.15,2013-03-07 17:11:00,
2013-03-07 11:16:00,29.3,23.6,30.41,ESE,123,5.0,6.0,79,0.00,,,0.01,Wunderground v.1.15,2013-03-07 17:16:00,
2013-03-07 11:22:00,29.6,24.2,30.41,SE,126,5.0,5.0,80,0.00,,,0.01,Wunderground v.1.15,2013-03-07 17:22:00,
2013-03-07 11:28:00,29.9,24.2,30.41,SE,124,5.0,6.0,79,0.00,,,0.01,Wunderground v.1.15,2013-03-07 17:28:00,
2013-03-07 11:33:00,30.3,24.6,30.41,SE,128,4.0,6.0,79,0.00,,,0.01,Wunderground v.1.15,2013-03-07 17:33:00,
2013-03-07 11:39:00,30.5,24.5,30.41,ESE,122,4.0,6.0,78,0.00,,,0.01,Wunderground v.1.15,2013-03-07 17:39:00,
2013-03-07 11:45:00,30.7,24.7,30.41,ESE,118,4.0,5.0,78,0.00,,,0.01,Wunderground v.1.15,2013-03-07 17:45:00,
2013-03-07 11:50:00,31.1,25.0,30.41,SE,142,4.0,5.0,78,0.00,,,0.01,Wunderground v.1.15,2013-03-07 17:50:00,
2013-03-07 11:55:00,31.6,24.6,30.40,SSE,149,4.0,5.0,75,0.00,,,0.01,Wunderground v.1.15,2013-03-07 17:55:00,
2013-03-07 12:01:00,32.1,25.1,30.40,South,169,4.0,4.0,75,0.00,,,0.01,Wunderground v.1.15,2013-03-07 18:01:00,
2013-03-07 12:06:00,32.4,25.0,30.40,SSE,150,4.0,5.0,74,0.00,,,0.01,Wunderground v.1.15,2013-03-07 18:06:00,
2013-03-07 12:12:00,32.5,25.1,30.39,SSE,148,4.0,4.0,74,0.00,,,0.01,Wunderground v.1.15,2013-03-07 18:12:00,
2013-03-07 12:17:00,33.5,25.8,30.39,SW,220,3.0,8.0,73,0.00,,,0.01,Wunderground v.1.15,2013-03-07 18:17:00,
2013-03-07 12:23:00,34.5,25.4,30.39,SW,234,4.0,5.0,69,0.00,,,0.01,Wunderground v.1.15,2013-03-07 18:23:00,
2013-03-07 12:28:00,34.8,25.3,30.39,WSW,237,4.0,5.0,68,0.00,,,0.01,Wunderground v.1.15,2013-03-07 18:28:00,
2013-03-07 12:34:00,35.0,25.5,30.39,SSW,192,4.0,4.0,68,0.00,,,0.01,Wunderground v.1.15,2013-03-07 18:34:00,
2013-03-07 12:39:00,35.7,26.2,30.38,South,186,2.0,4.0,68,0.00,,,0.01,Wunderground v.1.15,2013-03-07 18:39:00,
2013-03-07 12:45:00,36.5,25.8,30.38,SE,136,1.0,6.0,65,0.00,,,0.01,Wunderground v.1.15,2013-03-07 18:45:00,
2013-03-07 12:50:00,36.4,26.1,30.38,SSW,198,1.0,1.0,66,0.00,,,0.01,Wunderground v.1.15,2013-03-07 18:50:00,
2013-03-07 12:56:00,36.7,26.0,30.38,SSE,159,2.0,4.0,65,0.00,,,0.01,Wunderground v.1.15,2013-03-07 18:56:00,
2013-03-07 13:02:00,35.6,26.1,30.37,SW,229,3.0,4.0,68,0.00,,,0.01,Wunderground v.1.15,2013-03-07 19:02:00,
2013-03-07 13:07:00,35.9,26.4,30.37,SSE,161,3.0,4.0,68,0.00,,,0.01,Wunderground v.1.15,2013-03-07 19:07:00,
2013-03-07 13:13:00,35.7,26.2,30.37,SSE,156,2.0,4.0,68,0.00,,,0.01,Wunderground v.1.15,2013-03-07 19:13:00,
2013-03-07 13:18:00,35.2,26.0,30.36,SSW,206,3.0,5.0,69,0.00,,,0.01,Wunderground v.1.15,2013-03-07 19:18:00,
2013-03-07 13:24:00,35.5,25.3,30.36,SSE,149,3.0,6.0,66,0.00,,,0.01,Wunderground v.1.15,2013-03-07 19:24:00,
2013-03-07 13:30:00,34.8,25.7,30.36,SSE,153,4.0,4.0,69,0.00,,,0.01,Wunderground v.1.15,2013-03-07 19:30:00,
2013-03-07 13:35:00,34.7,25.9,30.36,SSE,152,4.0,7.0,70,0.00,,,0.01,Wunderground v.1.15,2013-03-07 19:35:00,
2013-03-07 13:45:00,34.7,25.9,30.36,SSE,147,5.0,7.0,70,0.00,,,0.01,Wunderground v.1.15,2013-03-07 19:45:00,
2013-03-07 13:51:00,34.8,26.4,30.36,SE,126,5.0,5.0,71,0.00,,,0.01,Wunderground v.1.15,2013-03-07 19:51:00,
2013-03-07 13:56:00,34.8,26.7,30.35,SE,132,5.0,7.0,72,0.00,,,0.01,Wunderground v.1.15,2013-03-07 19:56:00,
2013-03-07 14:02:00,34.7,26.3,30.35,SE,128,6.0,7.0,71,0.00,,,0.01,Wunderground v.1.15,2013-03-07 20:02:00,
2013-03-07 14:07:00,34.6,26.2,30.35,SSE,147,7.0,8.0,71,0.00,,,0.01,Wunderground v.1.15,2013-03-07 20:07:00,
2013-03-07 14:13:00,34.7,26.3,30.35,SE,134,7.0,7.0,71,0.00,,,0.01,Wunderground v.1.15,2013-03-07 20:13:00,
2013-03-07 14:19:00,34.7,26.3,30.35,SE,129,6.0,7.0,71,0.00,,,0.01,Wunderground v.1.15,2013-03-07 20:19:00,
2013-03-07 14:24:00,34.8,26.0,30.35,SSE,152,7.0,9.0,70,0.00,,,0.01,Wunderground v.1.15,2013-03-07 20:24:00,
2013-03-07 14:30:00,34.7,25.9,30.34,SSE,150,8.0,8.0,70,0.00,,,0.01,Wunderground v.1.15,2013-03-07 20:30:00,
2013-03-07 14:40:00,35.0,26.5,30.35,SE,135,6.0,6.0,71,0.00,,,0.01,Wunderground v.1.15,2013-03-07 20:40:00,
2013-03-07 14:46:00,35.1,26.3,30.34,SE,141,6.0,6.0,70,0.00,,,0.01,Wunderground v.1.15,2013-03-07 20:46:00,
2013-03-07 14:51:00,35.0,26.2,30.34,SE,137,6.0,8.0,70,0.00,,,0.01,Wunderground v.1.15,2013-03-07 20:51:00,
2013-03-07 14:57:00,35.1,25.9,30.34,SE,138,7.0,8.0,69,0.00,,,0.01,Wunderground v.1.15,2013-03-07 20:57:00,
2013-03-07 15:03:00,35.0,26.5,30.34,SSE,154,7.0,8.0,71,0.00,,,0.01,Wunderground v.1.15,2013-03-07 21:03:00,
2013-03-07 15:09:00,34.7,26.3,30.34,SE,146,8.0,8.0,71,0.00,,,0.01,Wunderground v.1.15,2013-03-07 21:09:00,
2013-03-07 15:15:00,35.0,26.5,30.33,SE,146,8.0,8.0,71,0.00,,,0.01,Wunderground v.1.15,2013-03-07 21:15:00,
2013-03-07 15:20:00,35.0,26.5,30.33,SE,146,7.0,7.0,71,0.00,,,0.01,Wunderground v.1.15,2013-03-07 21:20:00,
2013-03-07 15:25:00,34.9,26.4,30.34,SSE,153,7.0,7.0,71,0.00,,,0.01,Wunderground v.1.15,2013-03-07 21:25:00,
2013-03-07 15:31:00,34.8,26.7,30.33,SE,146,7.0,7.0,72,0.00,,,0.01,Wunderground v.1.15,2013-03-07 21:31:00,
2013-03-07 15:37:00,34.8,26.7,30.33,SSE,147,7.0,8.0,72,0.00,,,0.01,Wunderground v.1.15,2013-03-07 21:37:00,
2013-03-07 15:43:00,34.8,26.7,30.33,SE,139,7.0,8.0,72,0.00,,,0.01,Wunderground v.1.15,2013-03-07 21:43:00,
2013-03-07 15:48:00,34.8,26.7,30.33,SSE,147,7.0,9.0,72,0.00,,,0.01,Wunderground v.1.15,2013-03-07 21:48:00,
2013-03-07 15:54:00,34.7,26.6,30.33,SSE,149,7.0,9.0,72,0.00,,,0.01,Wunderground v.1.15,2013-03-07 21:54:00,
2013-03-07 16:00:00,34.7,26.3,30.33,SSE,153,8.0,8.0,71,0.00,,,0.01,Wunderground v.1.15,2013-03-07 22:00:00,
2013-03-07 16:06:00,34.8,26.4,30.33,SSE,149,8.0,10.0,71,0.00,,,0.01,Wunderground v.1.15,2013-03-07 22:06:00,
2013-03-07 16:11:00,34.9,26.8,30.32,SSE,153,8.0,10.0,72,0.00,,,0.01,Wunderground v.1.15,2013-03-07 22:11:00,
2013-03-07 16:17:00,35.0,26.5,30.32,SE,144,8.0,10.0,71,0.00,,,0.01,Wunderground v.1.15,2013-03-07 22:17:00,
2013-03-07 16:23:00,35.0,26.5,30.33,SE,141,8.0,8.0,71,0.00,,,0.01,Wunderground v.1.15,2013-03-07 22:23:00,
2013-03-07 16:29:00,35.1,26.6,30.33,SE,146,7.0,8.0,71,0.00,,,0.01,Wunderground v.1.15,2013-03-07 22:29:00,
2013-03-07 16:35:00,35.0,26.5,30.33,SE,145,7.0,9.0,71,0.00,,,0.01,Wunderground v.1.15,2013-03-07 22:35:00,
2013-03-07 16:40:00,35.0,26.5,30.33,SSE,163,7.0,7.0,71,0.00,,,0.01,Wunderground v.1.15,2013-03-07 22:40:00,
2013-03-07 16:46:00,35.0,26.5,30.33,SSE,160,7.0,9.0,71,0.00,,,0.01,Wunderground v.1.15,2013-03-07 22:46:00,
2013-03-07 16:52:00,34.9,26.4,30.33,SSE,153,7.0,8.0,71,0.00,,,0.01,Wunderground v.1.15,2013-03-07 22:52:00,
2013-03-07 16:57:00,34.9,26.4,30.32,SE,143,7.0,8.0,71,0.00,,,0.01,Wunderground v.1.15,2013-03-07 22:57:00,
2013-03-07 17:03:00,35.0,26.5,30.33,SSE,148,7.0,9.0,71,0.00,,,0.01,Wunderground v.1.15,2013-03-07 23:03:00,
2013-03-07 17:08:00,35.0,26.5,30.32,SE,146,7.0,9.0,71,0.00,,,0.01,Wunderground v.1.15,2013-03-07 23:08:00,
2013-03-07 17:14:00,35.0,26.5,30.33,SE,138,7.0,8.0,71,0.00,,,0.01,Wunderground v.1.15,2013-03-07 23:14:00,
2013-03-07 17:19:00,34.9,26.4,30.32,SE,140,7.0,11.0,71,0.00,,,0.01,Wunderground v.1.15,2013-03-07 23:19:00,
2013-03-07 17:25:00,34.8,26.0,30.32,SSE,151,7.0,9.0,70,0.00,,,0.01,Wunderground v.1.15,2013-03-07 23:25:00,
2013-03-07 17:31:00,34.7,25.9,30.32,SE,144,8.0,8.0,70,0.00,,,0.01,Wunderground v.1.15,2013-03-07 23:31:00,
2013-03-07 17:36:00,34.6,25.8,30.32,SSE,152,8.0,9.0,70,0.00,,,0.01,Wunderground v.1.15,2013-03-07 23:36:00,
2013-03-07 17:42:00,34.4,26.0,30.32,SSE,147,9.0,9.0,71,0.00,,,0.01,Wunderground v.1.15,2013-03-07 23:42:00,
2013-03-07 17:48:00,34.2,25.8,30.32,SE,134,8.0,9.0,71,0.00,,,0.01,Wunderground v.1.15,2013-03-07 23:48:00,
2013-03-07 17:53:00,33.9,25.8,30.33,ESE,123,7.0,7.0,72,0.00,,,0.01,Wunderground v.1.15,2013-03-07 23:53:00,
2013-03-07 17:58:00,33.9,25.8,30.32,SE,134,7.0,7.0,72,0.00,,,0.01,Wunderground v.1.15,2013-03-07 23:58:00,
2013-03-07 18:03:00,33.7,26.0,30.32,SE,141,6.0,8.0,73,0.00,,,0.01,Wunderground v.1.15,2013-03-08 00:03:00,
2013-03-07 18:11:00,33.4,26.0,30.33,SE,124,6.0,6.0,74,0.00,,,0.01,Wunderground v.1.15,2013-03-08 00:11:00,
2013-03-07 18:17:00,33.3,25.9,30.33,SE,142,6.0,6.0,74,0.00,,,0.01,Wunderground v.1.15,2013-03-08 00:17:00,
2013-03-07 18:22:00,33.1,26.0,30.33,SE,142,5.0,5.0,75,0.00,,,0.01,Wunderground v.1.15,2013-03-08 00:22:00,
2013-03-07 18:28:00,33.0,25.9,30.33,SE,140,5.0,5.0,75,0.00,,,0.01,Wunderground v.1.15,2013-03-08 00:28:00,
2013-03-07 18:33:00,32.8,25.7,30.33,SSE,147,5.0,6.0,75,0.00,,,0.01,Wunderground v.1.15,2013-03-08 00:33:00,
2013-03-07 18:39:00,32.7,26.0,30.33,SE,129,4.0,6.0,76,0.00,,,0.01,Wunderground v.1.15,2013-03-08 00:39:00,
2013-03-07 18:45:00,32.4,25.7,30.33,SE,129,3.0,4.0,76,0.00,,,0.01,Wunderground v.1.15,2013-03-08 00:45:00,
2013-03-07 18:59:00,31.8,25.4,30.34,SE,125,3.0,3.0,77,0.00,,,0.01,Wunderground v.1.15,2013-03-08 00:59:00,
2013-03-07 19:05:00,31.1,25.0,30.34,ESE,118,3.0,4.0,78,0.00,,,0.01,Wunderground v.1.15,2013-03-08 01:05:00,
2013-03-07 19:11:00,30.8,24.7,30.34,SE,127,2.0,4.0,78,0.00,,,0.01,Wunderground v.1.15,2013-03-08 01:11:00,
2013-03-07 19:27:00,30.3,24.6,30.34,SE,124,5.0,5.0,79,0.00,,,0.01,Wunderground v.1.15,2013-03-08 01:27:00,
2013-03-07 19:33:00,30.3,24.6,30.33,SE,128,5.0,6.0,79,0.00,,,0.01,Wunderground v.1.15,2013-03-08 01:33:00,
2013-03-07 19:39:00,30.4,25.0,30.33,ESE,111,6.0,6.0,80,0.00,,,0.01,Wunderground v.1.15,2013-03-08 01:39:00,
2013-03-07 19:45:00,30.7,25.3,30.33,SE,132,6.0,6.0,80,0.00,,,0.01,Wunderground v.1.15,2013-03-08 01:45:00,
2013-03-07 19:50:00,31.1,25.3,30.33,SE,140,5.0,5.0,79,0.00,,,0.01,Wunderground v.1.15,2013-03-08 01:50:00,
2013-03-07 19:56:00,31.4,25.6,30.33,SE,146,6.0,8.0,79,0.00,,,0.01,Wunderground v.1.15,2013-03-08 01:56:00,
2013-03-07 20:01:00,31.4,25.6,30.33,SE,136,6.0,6.0,79,0.00,,,0.01,Wunderground v.1.15,2013-03-08 02:01:00,
2013-03-07 20:07:00,31.5,26.0,30.33,SE,142,6.0,7.0,80,0.00,,,0.01,Wunderground v.1.15,2013-03-08 02:07:00,
2013-03-07 20:12:00,31.7,25.9,30.33,SE,132,6.0,6.0,79,0.00,,,0.01,Wunderground v.1.15,2013-03-08 02:12:00,
2013-03-07 20:18:00,31.7,26.2,30.33,SE,132,6.0,8.0,80,0.00,,,0.01,Wunderground v.1.15,2013-03-08 02:18:00,
2013-03-07 20:23:00,31.7,26.2,30.33,SE,129,6.0,7.0,80,0.00,,,0.01,Wunderground v.1.15,2013-03-08 02:23:00,
2013-03-07 20:29:00,31.8,26.3,30.33,SE,137,6.0,7.0,80,0.00,,,0.01,Wunderground v.1.15,2013-03-08 02:29:00,
2013-03-07 20:34:00,31.9,26.4,30.33,SSE,147,6.0,7.0,80,0.00,,,0.01,Wunderground v.1.15,2013-03-08 02:34:00,
2013-03-07 20:40:00,31.9,26.4,30.33,SE,135,6.0,6.0,80,0.00,,,0.01,Wunderground v.1.15,2013-03-08 02:40:00,
2013-03-07 20:45:00,31.8,26.3,30.33,SE,139,6.0,7.0,80,0.00,,,0.01,Wunderground v.1.15,2013-03-08 02:45:00,
2013-03-07 20:51:00,31.7,26.2,30.33,SSE,151,6.0,6.0,80,0.00,,,0.01,Wunderground v.1.15,2013-03-08 02:51:00,
2013-03-07 20:57:00,31.6,26.4,30.33,SE,140,7.0,8.0,81,0.00,,,0.01,Wunderground v.1.15,2013-03-08 02:57:00,
2013-03-07 21:03:00,31.4,26.2,30.33,SE,138,7.0,7.0,81,0.00,,,0.01,Wunderground v.1.15,2013-03-08 03:03:00,
2013-03-07 21:08:00,31.3,26.4,30.33,SSE,156,6.0,7.0,82,0.00,,,0.01,Wunderground v.1.15,2013-03-08 03:08:00,
2013-03-07 21:14:00,31.2,26.0,30.33,SE,125,6.0,6.0,81,0.00,,,0.01,Wunderground v.1.15,2013-03-08 03:14:00,
2013-03-07 21:19:00,31.1,26.2,30.33,SE,141,6.0,8.0,82,0.00,,,0.01,Wunderground v.1.15,2013-03-08 03:19:00,
2013-03-07 21:25:00,31.0,26.1,30.33,SE,144,6.0,7.0,82,0.00,,,0.01,Wunderground v.1.15,2013-03-08 03:25:00,
2013-03-07 21:30:00,30.9,26.1,30.33,SSE,154,6.0,7.0,82,0.00,,,0.01,Wunderground v.1.15,2013-03-08 03:30:00,
2013-03-07 21:36:00,30.8,26.2,30.33,SE,142,6.0,8.0,83,0.00,,,0.01,Wunderground v.1.15,2013-03-08 03:36:00,
2013-03-07 21:41:00,30.3,25.5,30.33,SSE,149,6.0,6.0,82,0.00,,,0.01,Wunderground v.1.15,2013-03-08 03:41:00,
2013-03-07 21:47:00,30.1,25.8,30.33,SSE,152,6.0,7.0,84,0.00,,,0.01,Wunderground v.1.15,2013-03-08 03:47:00,
2013-03-07 22:00:00,30.3,26.3,30.33,SSE,147,6.0,6.0,85,0.00,,,0.01,Wunderground v.1.15,2013-03-08 04:00:00,
2013-03-07 22:06:00,30.5,26.5,30.33,SE,136,6.0,7.0,85,0.00,,,0.01,Wunderground v.1.15,2013-03-08 04:06:00,
2013-03-07 22:12:00,30.5,26.5,30.33,SE,128,4.0,5.0,85,0.00,,,0.01,Wunderground v.1.15,2013-03-08 04:12:00,
2013-03-07 22:18:00,30.5,26.5,30.33,SSE,148,3.0,5.0,85,0.00,,,0.01,Wunderground v.1.15,2013-03-08 04:18:00,
2013-03-07 22:23:00,30.3,26.3,30.34,SSE,167,2.0,2.0,85,0.00,,,0.01,Wunderground v.1.15,2013-03-08 04:23:00,
2013-03-07 22:31:00,30.0,26.3,30.34,SSE,167,2.0,5.0,86,0.00,,,0.01,Wunderground v.1.15,2013-03-08 04:31:00,
2013-03-07 22:37:00,30.0,26.3,30.34,South,184,2.0,5.0,86,0.00,,,0.01,Wunderground v.1.15,2013-03-08 04:37:00,
2013-03-07 22:42:00,30.0,26.6,30.34,South,171,2.0,3.0,87,0.00,,,0.01,Wunderground v.1.15,2013-03-08 04:42:00,
2013-03-07 22:48:00,30.0,26.6,30.34,South,175,2.0,3.0,87,0.00,,,0.01,Wunderground v.1.15,2013-03-08 04:48:00,
2013-03-07 22:53:00,30.0,26.6,30.34,SSE,168,2.0,3.0,87,0.00,,,0.01,Wunderground v.1.15,2013-03-08 04:53:00,
2013-03-07 22:59:00,30.1,27.0,30.34,SSE,155,2.0,5.0,88,0.00,,,0.01,Wunderground v.1.15,2013-03-08 04:59:00,
2013-03-07 23:00:00,30.1,27.0,30.34,SE,146,2.0,4.0,88,0.00,,,0.01,Wunderground v.1.15,2013-03-08 05:00:00,
2013-03-07 23:09:00,30.2,27.1,30.34,SSE,166,2.0,4.0,88,0.00,,,0.01,Wunderground v.1.15,2013-03-08 05:09:00,
2013-03-07 23:15:00,30.3,27.2,30.34,South,179,3.0,4.0,88,0.00,,,0.01,Wunderground v.1.15,2013-03-08 05:15:00,
2013-03-07 23:16:00,30.2,26.8,30.34,South,176,3.0,4.0,87,0.00,,,0.01,Wunderground v.1.15,2013-03-08 05:16:00,
2013-03-07 23:22:00,29.7,26.3,30.34,South,185,3.0,4.0,87,0.00,,,0.01,Wunderground v.1.15,2013-03-08 05:22:00,
2013-03-07 23:28:00,29.3,26.2,30.34,SSE,166,2.0,4.0,88,0.00,,,0.01,Wunderground v.1.15,2013-03-08 05:28:00,
2013-03-07 23:33:00,29.4,26.6,30.35,SE,140,2.0,2.0,89,0.00,,,0.01,Wunderground v.1.15,2013-03-08 05:33:00,
2013-03-07 23:39:00,29.6,26.8,30.34,SE,144,2.0,4.0,89,0.00,,,0.01,Wunderground v.1.15,2013-03-08 05:39:00,
2013-03-07 23:45:00,29.7,26.9,30.35,SE,142,1.0,4.0,89,0.00,,,0.01,Wunderground v.1.15,2013-03-08 05:45:00,
2013-03-07 23:50:00,29.9,27.1,30.35,SE,139,2.0,3.0,89,0.00,,,0.01,Wunderground v.1.15,2013-03-08 05:50:00,
2013-03-07 23:55:00,29.9,26.8,30.35,SSE,149,3.0,6.0,88,0.00,,,0.01,Wunderground v.1.15,2013-03-08 05:55:00,